This is the latest recevied weather packets stored in our database for station/object BV5AB-13. If no packets are shown the sender has not sent any weather packets the latest 10 day(s).
| Time | Temp. | Humidity | Pressure | Rain* | Wind** | Luminosity | Snow |
|---|---|---|---|---|---|---|---|
| 1777981024 | 21.67° C | 97% | 1004.1 hPa | 2.54 mm | - | - | - |
| 1777980424 | 21.67° C | 97% | 1004.1 hPa | 2.54 mm | - | - | - |
| 1777979825 | 21.67° C | 97% | 1004.1 hPa | 2.03 mm | - | - | - |
| 1777979223 | 21.67° C | 96% | 1004.1 hPa | 2.03 mm | - | - | - |
| 1777978623 | 21.11° C | 96% | 1004 hPa | 2.03 mm | - | - | - |
| 1777978025 | 21.11° C | 96% | 1003.8 hPa | 2.54 mm | - | - | - |
| 1777977423 | 21.11° C | 96% | 1003.7 hPa | 3.05 mm | - | - | - |
| 1777976823 | 21.11° C | 96% | 1003.3 hPa | 3.56 mm | - | - | - |
| 1777976224 | 21.11° C | 95% | 1003.3 hPa | 3.56 mm | - | - | - |
| 1777975624 | 21.67° C | 94% | 1003.7 hPa | 3.56 mm | - | - | - |
| 1777975023 | 21.67° C | 94% | 1003.5 hPa | 3.56 mm | - | - | - |
| 1777974424 | 21.67° C | 94% | 1003.3 hPa | 3.05 mm | - | - | - |
| 1777973823 | 21.67° C | 94% | 1003.3 hPa | 3.56 mm | - | - | - |
| 1777973224 | 21.67° C | 94% | 1003.2 hPa | 3.05 mm | - | - | - |
| 1777972623 | 21.67° C | 94% | 1003 hPa | 4.06 mm | - | - | - |
| 1777972024 | 21.67° C | 94% | 1002.9 hPa | 4.57 mm | - | - | - |
| 1777971424 | 21.67° C | 94% | 1003 hPa | 5.08 mm | - | - | - |
| 1777970823 | 21.67° C | 93% | 1002.9 hPa | 6.6 mm | - | - | - |
| 1777970224 | 21.67° C | 94% | 1003.2 hPa | 8.89 mm | - | - | - |
| 1777969624 | 21.67° C | 94% | 1003.1 hPa | 10.41 mm | - | - | - |
| 1777969024 | 21.67° C | 94% | 1002.9 hPa | 9.91 mm | - | - | - |
| 1777968424 | 21.67° C | 93% | 1003.1 hPa | 9.4 mm | - | - | - |
| 1777967824 | 22.22° C | 93% | 1003.1 hPa | 8.38 mm | - | - | - |
| 1777967224 | 22.22° C | 92% | 1003.3 hPa | 6.6 mm | - | - | - |
| 1777966624 | 22.22° C | 90% | 1003.4 hPa | 3.05 mm | - | - | - |
* Rain latest hour (hover to see other rain measurements)
** Current wind speed in m/s (hover to see current wind gust speed)